[[{"header":{"parameterUnit":"m.s-1","parameterCategory":1,"la1":30.2991,"la2":30.254,"lo1":-89.0895,"lo2":-89.0444,"dy":0.0017,"dx":0.0017,"nx":28,"ny":28,"refTime":"2023-10-31T09:00:00:Z","depth":0,"parameterNumber":2,"parameterNumberName":"U-component_of_WINDS"},"data":[0,0,0,0,0,0,0,0,0,0,0,0,0,0,0,0,0,0,0,0,0,0,0,0,0,0,0,0,0,0,0,0,0,0,0,0,0,0,0,0,0,0,0,0,0,0,0,0,0,0,0,0,0,0,0,0,0,0,0.7323,0.7322,0,0.7265,0.7264,0.7264,0.7246,0.7246,0.7247,0.7247,0.7186,0.7184,0.7182,0,0,0,0,0,0,0,0,0,0,0,0,0,0.7419,0.7417,0.7323,0.7322,0.7322,0.7265,0.7264,0.7263,0.7246,0.7246,0.7247,0.7247,0.7186,0.7184,0.7182,0,0,0,0,0,0,0,0,0,0,0,0,0,0.737,0.7416,0.7323,0.7306,0.7304,0.7265,0.7264,0.7263,0.7246,0.7246,0.7247,0.7247,0.7187,0.7184,0.7182,0.7155,0,0,0.7173,0.7172,0,0,0,0,0,0,0,0,0.7373,0.7367,0.7309,0.7307,0.7305,0.7263,0.7275,0.7227,0.7246,0.7268,0.7247,0.7247,0.7211,0.7206,0.7194,0.7152,0.7149,0.7173,0.7171,0.717,0.7169,0,0,0,0,0,0,0,0.7376,0.7369,0.73,0.7309,0.7306,0.7301,0.7295,0.7266,0.7238,0.7266,0.7265,0.7258,0.721,0.7197,0.7193,0.7148,0.7173,0.717,0.7168,0.7167,0.7083,0.7082,0,0,0,0,0,0,0.7383,0.7372,0.7302,0.7298,0.7341,0.7299,0.7292,0.7276,0.7238,0.7233,0.7258,0.7257,0.7202,0.7196,0.7191,0.7157,0.717,0.7167,0.7165,0.7083,0.7083,0.7082,0,0,0,0,0,0,0.7385,0.7377,0.7304,0.7335,0.7325,0.7297,0.7279,0.7275,0.7262,0.7232,0.7226,0.725,0.7202,0.7195,0.7164,0.7155,0.7166,0.7163,0.7084,0.7083,0.7082,0.709,0,0,0,0,0,0,0.7388,0.7378,0.7367,0.7335,0.7324,0.7279,0.7279,0.7273,0.7257,0.7256,0.7223,0.7218,0.7202,0.7169,0.7161,0.7151,0.7161,0.7085,0.7084,0.7083,0.7091,0.709,0.7089,0,0,0,0,0,0.7391,0.7371,0.7367,0.7358,0.731,0.7278,0.7272,0.7254,0.7256,0.7246,0.7227,0.7219,0.7158,0.7166,0.7157,0.7146,0.7085,0.7084,0.7083,0.7091,0.709,0.7089,0,0,0,0,0,0,0.7402,0.7366,0.7361,0.733,0.7307,0.7275,0.7261,0.7254,0.7229,0.7229,0.7208,0.7201,0.7172,0.7156,0.7166,0.7119,0.7121,0.7118,0.713,0.7129,0.7128,0.7132,0.7158,0,0,0,0,0,0.7401,0.7378,0.7348,0.7324,0.7313,0.7289,0.7275,0.7263,0.7239,0.7229,0.7208,0.7184,0.7159,0.7143,0.7119,0.7089,0.7082,0.7077,0.7077,0.7076,0.7073,0.7057,0.7055,0.7078,0.7078,0.7078,0,0,0.7398,0.7376,0.7362,0.7325,0.7306,0.7284,0.7281,0.7257,0.7239,0.7225,0.7195,0.7179,0.7151,0.7121,0.7107,0.7107,0.7066,0.7075,0.7074,0.7072,0.7056,0.7053,0.7051,0.7077,0.7078,0.7078,0,0,0.738,0.7361,0.7339,0.7321,0.7293,0.7278,0.7273,0.7242,0.7231,0.7201,0.719,0.717,0.7128,0.7109,0.7094,0.7072,0.7064,0.7065,0.706,0.7044,0.7043,0.7041,0.7033,0.7031,0.7063,0.7063,0.7063,0,0.738,0.7345,0.7328,0.7305,0.7289,0.7277,0.7254,0.7237,0.7202,0.7192,0.7193,0.7141,0.7121,0.7087,0.7082,0.707,0.7064,0.7068,0.7044,0.7042,0.7041,0.7033,0.703,0.7063,0.7063,0.7063,0.7063,0,0.7346,0.7322,0.7308,0.7276,0.7258,0.7235,0.7216,0.72,0.7191,0.7176,0.7146,0.7123,0.7094,0.7085,0.7075,0.705,0.7051,0.7049,0.705,0.7039,0.7031,0.7028,0.7063,0.7063,0.7063,0.7063,0,0,0.7331,0.7292,0.7287,0.7273,0.7242,0.7224,0.7201,0.7174,0.7161,0.7138,0.7118,0.7085,0.7083,0.7066,0.7054,0.704,0.7025,0.704,0.7039,0.7038,0.6996,0.6997,0.6994,0.7021,0.702,0.7019,0.6998,0,0.731,0.7268,0.7254,0.722,0.7198,0.7187,0.7167,0.7147,0.7132,0.7112,0.7096,0.7072,0.7072,0.7061,0.7048,0.703,0.7016,0.7031,0.7002,0.7001,0.7008,0.699,0.6991,0.6972,0.6995,0.6995,0.6994,0,0.7278,0.7256,0.722,0.7194,0.7184,0.7167,0.7141,0.7122,0.7099,0.709,0.7072,0.7062,0.7038,0.7042,0.7009,0.702,0.7007,0.6997,0.6996,0.6991,0.6996,0.6985,0.6966,0.6963,0.699,0.699,0.699,0,0.7271,0.7233,0.7206,0.7195,0.7163,0.7151,0.7138,0.7115,0.71,0.7078,0.7068,0.7044,0.703,0.7012,0.6995,0.7,0.6964,0.6966,0.6955,0.6956,0.6947,0.6947,0.6925,0.694,0.694,0.694,0.694,0,0.7248,0.7226,0.7203,0.7186,0.7162,0.7146,0.7123,0.7109,0.7089,0.707,0.7059,0.7042,0.7022,0.7002,0.6989,0.6964,0.6958,0.695,0.6946,0.695,0.6951,0.694,0.6941,0.694,0.694,0.694,0.694,0,0.7234,0.7218,0.7189,0.7162,0.7155,0.7139,0.7116,0.71,0.7087,0.7063,0.7056,0.7035,0.7011,0.6993,0.6962,0.6954,0.6926,0.6923,0.6934,0.6932,0.6922,0.6923,0.6891,0.6886,0.6906,0.6906,0.6905,0,0.722,0.7204,0.7176,0.7163,0.715,0.7128,0.7114,0.7098,0.7083,0.7057,0.7044,0.702,0.6999,0.6961,0.6943,0.6919,0.6915,0.6906,0.6911,0.6916,0.6915,0.6916,0.6914,0.6904,0.6904,0.6904,0.6904,0,0.7197,0.719,0.7169,0.7146,0.7129,0.711,0.7091,0.7081,0.7062,0.7046,0.7022,0.7006,0.6975,0.6951,0.6926,0.6912,0.6905,0.6903,0.6899,0.6902,0.6909,0.6905,0.6931,0.6903,0.6903,0.6903,0.6903,0.6903,0.7182,0.7167,0.7146,0.7123,0.7108,0.7091,0.7075,0.706,0.704,0.7014,0.7006,0.6981,0.696,0.6926,0.6912,0.6892,0.6892,0.6887,0.6885,0.6884,0.6884,0.6913,0.6888,0.6888,0.6888,0.6888,0.6888,0,0.7157,0.7144,0.7124,0.7098,0.7081,0.7077,0.7056,0.7042,0.702,0.7001,0.6982,0.6955,0.6932,0.6913,0.6889,0.6878,0.6874,0.6872,0.6872,0.6869,0.6885,0.6891,0.6875,0.6875,0.6875,0.6875,0.6875,0.6875,0.7142,0.7117,0.7108,0.7076,0.7062,0.7038,0.7027,0.7011,0.6996,0.6967,0.6948,0.6936,0.6917,0.6893,0.6872,0.6867,0.6858,0.6857,0.6851,0.6866,0.6868,0.6869,0.6874,0.6856,0.6856,0.6837,0.6837,0.6836]},{"header":{"parameterUnit":"m.s-1","parameterCategory":1,"la1":30.2991,"la2":30.254,"lo1":-89.0895,"lo2":-89.0444,"dy":0.0017,"dx":0.0017,"nx":28,"ny":28,"refTime":"2023-10-31T09:00:00:Z","depth":0,"parameterNumber":3,"parameterNumberName":"V-component_of_WINDS"},"data":[0,0,0,0,0,0,0,0,0,0,0,0,0,0,0,0,0,0,0,0,0,0,0,0,0,0,0,0,0,0,0,0,0,0,0,0,0,0,0,0,0,0,0,0,0,0,0,0,0,0,0,0,0,0,0,0,0,0,-8.6206,-8.6208,0,-8.6385,-8.6387,-8.6389,-8.6306,-8.6301,-8.6297,-8.6293,-8.6469,-8.6477,-8.6486,0,0,0,0,0,0,0,0,0,0,0,0,0,-8.5784,-8.5792,-8.6205,-8.6208,-8.621,-8.6385,-8.6387,-8.639,-8.6307,-8.6301,-8.6296,-8.6291,-8.6466,-8.6476,-8.6487,0,0,0,0,0,0,0,0,0,0,0,0,0,-8.5965,-8.5795,-8.6205,-8.619,-8.619,-8.6384,-8.6387,-8.639,-8.6308,-8.6301,-8.6294,-8.6288,-8.6462,-8.6475,-8.6488,-8.6705,0,0,-8.6529,-8.6535,0,0,0,0,0,0,0,0,-8.5955,-8.5981,-8.619,-8.6191,-8.6192,-8.6316,-8.6303,-8.6496,-8.631,-8.6263,-8.6293,-8.6285,-8.6423,-8.6439,-8.6487,-8.6714,-8.6721,-8.653,-8.6538,-8.6544,-8.6548,0,0,0,0,0,0,0,-8.5943,-8.5973,-8.6276,-8.6193,-8.6194,-8.6172,-8.619,-8.6339,-8.6378,-8.6267,-8.6261,-8.6284,-8.6422,-8.6475,-8.6491,-8.6724,-8.653,-8.6542,-8.655,-8.6555,-8.7137,-8.7144,0,0,0,0,0,0,-8.5932,-8.5963,-8.627,-8.6282,-8.6055,-8.6185,-8.6205,-8.6283,-8.6377,-8.6384,-8.6289,-8.6279,-8.6455,-8.6475,-8.6497,-8.6757,-8.6544,-8.6556,-8.6564,-8.7129,-8.7138,-8.7146,0,0,0,0,0,0,-8.5923,-8.596,-8.6263,-8.6121,-8.6158,-8.6199,-8.6287,-8.629,-8.6343,-8.6394,-8.64,-8.6336,-8.6451,-8.6478,-8.6655,-8.6762,-8.6562,-8.6574,-8.712,-8.7132,-8.7142,-8.728,0,0,0,0,0,0,-8.5911,-8.5957,-8.6042,-8.6124,-8.6166,-8.6421,-8.6294,-8.6299,-8.6367,-8.6355,-8.6439,-8.6447,-8.6448,-8.6635,-8.6668,-8.6777,-8.6585,-8.7111,-8.7126,-8.7139,-8.7266,-8.7294,-8.7319,0,0,0,0,0,-8.5896,-8.6072,-8.6047,-8.6084,-8.6273,-8.6427,-8.6451,-8.6451,-8.6376,-8.646,-8.6493,-8.6444,-8.6745,-8.6654,-8.669,-8.6805,-8.7104,-8.7121,-8.7138,-8.7254,-8.7289,-8.7318,0,0,0,0,0,0,-8.5998,-8.6082,-8.6055,-8.6263,-8.6339,-8.6413,-8.6519,-8.6488,-8.6585,-8.657,-8.6562,-8.6582,-8.6765,-8.6802,-8.6699,-8.7019,-8.6913,-8.6938,-8.6989,-8.7022,-8.7048,-8.7035,-8.6596,0,0,0,0,0,-8.6046,-8.6167,-8.6232,-8.6408,-8.6448,-8.6478,-8.6545,-8.6538,-8.6616,-8.6647,-8.6693,-8.6768,-8.6879,-8.6952,-8.7058,-8.7271,-8.7287,-8.7367,-8.7393,-8.7415,-8.7436,-8.7552,-8.7588,-8.7202,-8.7201,-8.7201,0,0,-8.6143,-8.6204,-8.628,-8.6431,-8.6489,-8.6612,-8.6505,-8.664,-8.6731,-8.6666,-8.6837,-8.6874,-8.6956,-8.7153,-8.7241,-8.7189,-8.7547,-8.7436,-8.7453,-8.7463,-8.7573,-8.7609,-8.7642,-8.7213,-8.7211,-8.7209,0,0,-8.6385,-8.6443,-8.6597,-8.6658,-8.6749,-8.6768,-8.6805,-8.6885,-8.6907,-8.7079,-8.7033,-8.714,-8.7332,-8.7393,-8.745,-8.7715,-8.7674,-8.7749,-8.7888,-8.8,-8.8031,-8.8057,-8.8152,-8.8187,-8.7771,-8.7771,-8.7771,0,-8.6494,-8.6681,-8.6679,-8.6819,-8.6886,-8.6836,-8.6991,-8.705,-8.7169,-8.7216,-8.7156,-8.7397,-8.7449,-8.7659,-8.7725,-8.7772,-8.7812,-8.774,-8.8027,-8.8054,-8.8079,-8.8169,-8.8205,-8.778,-8.7779,-8.7778,-8.7777,0,-8.6811,-8.6941,-8.7054,-8.7174,-8.7254,-8.74,-8.7419,-8.7499,-8.7486,-8.751,-8.7685,-8.7746,-8.7863,-8.7912,-8.7899,-8.8121,-8.8086,-8.8027,-8.792,-8.8124,-8.8209,-8.8244,-8.7792,-8.7789,-8.7786,-8.7784,0,0,-8.7121,-8.724,-8.7282,-8.7336,-8.7433,-8.7532,-8.7675,-8.7793,-8.7862,-8.7945,-8.8065,-8.8229,-8.8176,-8.824,-8.8233,-8.8332,-8.8539,-8.8261,-8.8262,-8.8311,-8.8787,-8.8831,-8.8871,-8.8512,-8.8518,-8.8524,-8.878,0,-8.737,-8.7625,-8.7628,-8.7861,-8.7981,-8.7935,-8.806,-8.8132,-8.8158,-8.8262,-8.8289,-8.8406,-8.8327,-8.8365,-8.8461,-8.8494,-8.8634,-8.8475,-8.8621,-8.8626,-8.8603,-8.8915,-8.8962,-8.9201,-8.8813,-8.8818,-8.8823,0,-8.7694,-8.7792,-8.8039,-8.8119,-8.8169,-8.8282,-8.839,-8.849,-8.857,-8.8582,-8.8655,-8.8633,-8.8777,-8.8665,-8.8863,-8.8755,-8.8814,-8.8839,-8.8848,-8.8862,-8.8737,-8.8938,-8.9277,-8.9313,-8.8875,-8.887,-8.8867,0,-8.7897,-8.809,-8.8262,-8.831,-8.8408,-8.8488,-8.8532,-8.8605,-8.8676,-8.8769,-8.8815,-8.8923,-8.8982,-8.9065,-8.9072,-8.899,-8.9271,-8.916,-8.9284,-8.9284,-8.9345,-8.9342,-8.97,-8.9384,-8.9383,-8.9382,-8.9382,0,-8.8175,-8.8327,-8.8355,-8.8461,-8.863,-8.8631,-8.8797,-8.8834,-8.89,-8.9011,-8.8976,-8.908,-8.9084,-8.919,-8.9196,-8.9359,-8.9385,-8.9398,-8.9397,-8.9401,-8.94,-8.944,-8.9424,-8.9392,-8.939,-8.9388,-8.9386,0,-8.843,-8.8455,-8.864,-8.8718,-8.8741,-8.8862,-8.8928,-8.9028,-8.9051,-8.9192,-8.9225,-8.9261,-8.9384,-8.94,-8.9542,-8.9546,-8.9742,-8.9724,-8.9717,-8.9714,-8.9837,-8.9826,-9.0234,-9.0288,-8.9937,-8.994,-8.9943,0,-8.8606,-8.8722,-8.8814,-8.8888,-8.8937,-8.9055,-8.9128,-8.9132,-8.9209,-8.9309,-8.9397,-8.9517,-8.9614,-8.9812,-8.9849,-8.9958,-8.9943,-9.0078,-8.9959,-8.9959,-8.9945,-8.9939,-8.995,-9.0101,-9.0105,-9.0108,-9.0111,0,-8.8916,-8.8923,-8.903,-8.9143,-8.9232,-8.932,-8.9402,-8.9463,-8.9478,-8.9566,-8.9693,-8.9768,-8.9916,-9.0035,-9.0143,-9.0185,-9.0151,-9.0149,-9.0183,-9.0188,-9.0179,-9.0186,-8.978,-9.0139,-9.0136,-9.0134,-9.0133,-9.0132,-8.9137,-8.9239,-8.932,-8.9441,-8.9504,-8.9583,-8.9682,-8.9718,-8.9825,-8.9948,-8.9943,-9.0083,-9.0159,-9.03,-9.0351,-9.0458,-9.0413,-9.0463,-9.0476,-9.0488,-9.0501,-9.0162,-9.0478,-9.0477,-9.0476,-9.0475,-9.0475,0,-8.9445,-8.9496,-8.9607,-8.9726,-8.9821,-8.9783,-8.9873,-8.9954,-9.0079,-9.0154,-9.025,-9.0396,-9.0512,-9.0559,-9.0672,-9.0749,-9.0736,-9.0778,-9.0773,-9.0783,-9.0534,-9.0494,-9.0787,-9.0787,-9.0787,-9.0787,-9.0787,-9.0787,-8.9617,-8.9788,-8.9805,-9.0006,-9.0054,-9.0194,-9.0248,-9.032,-9.038,-9.0545,-9.0643,-9.0673,-9.0737,-9.0854,-9.0958,-9.0969,-9.1012,-9.1062,-9.1065,-9.0832,-9.0801,-9.077,-9.0732,-9.1071,-9.1071,-9.1305,-9.1307,-9.1309]}]]